Terminal Aerodrome Forecast
Issued by NWS

Home | Current Version | Previous Version | Text Only | Print | Product List | Glossary On
Versions: 1 2 3 4 5 6 7 8 9 10 11 12 13 14 15 16 17 18 19 20 21 22 23 24 25 26 27 28 29 30 31
000
FTAK31 PAFA 171138
TAFAOT
TAF
PAOT 171138Z 1712/1812 12004KT P6SM OVC014
     FM171500 10007KT P6SM OVC025
     FM172100 10007KT P6SM BKN050
     FM180000 34008KT P6SM BKN100=

USA.gov is the U.S. government's official web portal to all federal, state and local government web resources and services.